OPS 4682 DEB, 19664

Orbit data source: Space-Track

OPS 4682 DEB, 19664 is space debris in LEO originally from a launch on Sat, 03 Apr 1965 UTC launched from the Air Force Western Test Range (AFWTR). Debris objects in space refer to the collection of defunct objects orbiting the Earth. Examples of debris include non-operational satellites, rocket bodies, and fragments generated from explosions, collisions, or faulty payload assembly.

Loading next visibility...
Identifier
19664, 1965-027AX
Orbit
LEO
Country
Flag of USUS
Related business
Manufacturer
Unknown
Mission
Spacecraft
Bus & Motor
Unknown
Mass
Unknown
Launch date (UTC)
1965-04-03 (61 years ago)
Launch vehicle
Unknown
Launch site
Air Force Western Test Range (AFWTR)
Object type
Payload
Rocket body
Debris
Shape & HBR
Unknown shape, 0.1 m
Radar Cross Section
Small (<0.1 m²)

Expand to show TLE details & history
Last TLE update: 8 hours ago

TLE from 8 hours ago
0 OPS 4682 DEB
1 19664U 65027AX  26119.39282609  .00000704  00000-0  21829-2 0  9999
2 19664  90.2533 356.6688 0027038 323.5920 213.4188 13.03990763 50177
Epoch: 2026-04-29T09:25Z
TLE epoch observation values (Epoch: 2026-04-29T09:25:40.174Z)
Latitude
3.06486°
Longitude
177.91047°
Altitude
1,266.262 km
Speed
7.214 km/s
True Right ascension
11h 46m 43s
True Declination
3° 02' 52"
Sunlit
Object was in full shadow at epoch
Visualization orbit readout
Latitude
Unknown
Longitude
Unknown
Altitude
Unknown
Speed
Unknown
Apparent Right ascension
Unknown
Apparent Declination
Unknown
Sunlit
N/A
Visualization observer readout
Local Sidereal Time
00:34:38
Azimuth
Unknown
Elevation
Unknown
Doppler factor
Unknown
Orbital elements
Apogee altitude
1,264.219 km
Perigee altitude
1,223.004 km
Semi-major axis
7,621.749 km
Eccentricity
0.0027
Inclination
90.2533°
RAAN
356.6688°
Arg. of periapsis
323.592°
True anomaly
213.24864°
Mean anomaly
213.4188°
Eccentric anomaly
213.33367°
Mean motion
3.26183 °/min
Orbital period
110.37 mins
BSTAR
0.0021829
Loading maneuver chart data...
Computing Atmospheric mass density...
Loading historical data...
Loading historical data...
Loading historical data...
Loading historical data...
Loading historical data...
Loading historical data...
Loading historical data...

Documentation

Showing up to 5 results
|